Погода в Ивановке

Россия / Астраханская область     47°17′49″N   47°01′36″E
темп.,
°C
ветер,
м/с
пор.,
м/с
влажн.,
%
обл.,
%
осадки,
мм/ч
давл.,
гПа
погр.,
м
17 сентября, пт
пт1701:00+13ссв475020 0.0 1017196
04:00+12ссв475299 0.0 1018179
07:00+11ссв4753100 0.0 1018267
10:00+14св34430 0.0 1019702
13:00+17св23330 0.0 10181087
16:00+19всв12310 0.0 10171196
19:00+16вюв22370 0.0 101714
22:00+15в33455 0.0 101840
18 сентября, сб
сб1801:00+14вюв33500 0.0 101840
04:00+13ююв33520 0.0 101835
07:00+12ююв334949 0.0 101846
10:00+18ююв33355 0.0 1019569
13:00+20вюв32285 0.0 10181585
16:00+21в3226100 0.0 10181601
19:00+18в3334100 0.0 101830
22:00+17юв5942100 0.0 1019172
19 сентября, вс
вс1901:00+15ю59605 0.0 1019179
04:00+13ююв35635 0.0 101977
07:00+13юв46605 0.0 1020105
10:00+18юв6844100 0.0 1021682
13:00+22вюв683550 0.0 10201497
16:00+22юв7833100 0.0 10191668
19:00+20юв81142100 0.0 1019628
22:00+17юв81255100 0.0 1020529
20 сентября, пн
пн2001:00+16вюв6125597 0.0 1019405
04:00+17вюв7144795 0.0 1018502
07:00+17вюв81449100 0.0 1018516
10:00+19юв91238100 0.0 1018586
13:00+22юв81033100 0.0 1017999
16:00+22вюв7835100 0.0 10161078
19:00+19вюв6115166 0.0 1016221
22:00+17вюв596676 0.0 1017189
21 сентября, вт
вт2101:00+15вюв477455 0.0 1017144
04:00+15вюв458297 0.0 101687
07:00+15вюв3483100 0.0 101692
10:00+19вюв2363100 0.0 1016291
13:00+21юв2356100 0.0 1016394
16:00+23св2250100 0.0 1015425
19:00+21юв345199 0.0 101580
22:00+20ююв6105385 0.0 1015241